Mackall AAF, NC

4:22 PM EDT on April 30, 2017 (GMT -0400)
Mackall Army Air Field

Weather History for KHFF - January, 2013

Change the Weather History Date:

Monday, January 28, 2013

  Actual Average Record
Temperature  
Mean Temperature 44 °F -  
Max Temperature 55 °F 52 °F 77 °F (1999)
Min Temperature 33 °F 29 °F 21 °F (2005)
Degree Days  
Heating Degree Days 21    
Moisture  
Dew Point 38 °F    
Average Humidity 79    
Maximum Humidity 93    
Minimum Humidity 62    
Precipitation  
Precipitation 0.00 in - - ()
Sea Level Pressure  
Sea Level Pressure 30.41 in    
Wind  
Wind Speed 3 mph (SSW)    
Max Wind Speed 10 mph    
Max Gust Speed -    
Visibility 9 miles    
Events Rain    
Averages and records for this station are not official NWS values.
T = Trace of Precipitation, MM = Missing Value Source: NWS Daily Summary

Daily Weather History Graph

Daily Weather History Graph

Search for Another Location

Airport or City:

Trip Planner

Search our weather history database for the weather conditions in past years. The results will help you decide how hot, cold, wet, or windy it might be!

Date:

Astronomy

Jan. 28, 2013 Rise Set
Actual Time 7:19 AM EST 5:42 PM EST
Civil Twilight 6:52 AM EST 6:09 PM EST
Nautical Twilight 6:22 AM EST 6:40 PM EST
Astronomical Twilight 5:52 AM EST 7:10 PM EST
Moon 7:29 PM EST (1/28) 7:49 AM EST (1/28)
Length of Visible Light 11h 17m
Length of Day
10h 23m
Full, 98% of the Moon is Illuminated
Jan 28
Full
Feb 3
Last Quarter
Feb 10
New
Feb 17
First Quarter
Feb 25
Full

Hourly Weather History & Observations

Time (EST) Temp. Windchill Dew Point Humidity Pressure Visibility Wind Dir Wind Speed Gust Speed Precip Events Conditions
12:55 AM 34.9 °F - 28.6 °F 78% 30.53 in 10.0 mi North - - N/A   Overcast
1:33 AM 35.6 °F 31.7 °F 28.4 °F 75% 30.51 in 10.0 mi SSE 4.6 mph - N/A Rain Light Rain
1:55 AM 34.7 °F - 29.1 °F 80% 30.51 in 9.0 mi North - - N/A Rain Light Rain
2:55 AM 34.7 °F - 30.0 °F 83% 30.51 in 10.0 mi North - - N/A Rain Light Rain Showers
3:02 AM 35.6 °F - 30.2 °F 81% 30.51 in 10.0 mi Calm Calm - N/A   Mostly Cloudy
3:08 AM 35.6 °F - 30.2 °F 81% 30.51 in 10.0 mi Variable 1.2 mph - N/A Rain Light Rain Showers
3:44 AM 33.8 °F - 32.0 °F 93% 30.50 in 7.0 mi North 1.2 mph - N/A   Mostly Cloudy
3:55 AM 34.5 °F - 32.5 °F 92% 30.51 in 6.0 mi NNW 1.2 mph - N/A   Mostly Cloudy
4:55 AM 34.5 °F - 31.6 °F 89% 30.48 in 8.0 mi North - - N/A   Overcast
5:55 AM 34.5 °F - 31.8 °F 90% 30.48 in 8.0 mi East 1.2 mph - N/A   Mostly Cloudy
6:55 AM 34.2 °F - 32.2 °F 92% 30.50 in 7.0 mi NW 1.2 mph - N/A   Mostly Cloudy
7:20 AM 35.6 °F 32.8 °F 32.0 °F 87% 30.50 in 6.0 mi SSE 3.5 mph - N/A   Mostly Cloudy
7:55 AM 35.1 °F - 32.7 °F 91% 30.51 in 6.0 mi SSE 1.2 mph - N/A   Mostly Cloudy
8:55 AM 36.5 °F 33.9 °F 32.0 °F 84% 30.51 in 10.0 mi SSE 3.5 mph - N/A   Overcast
9:55 AM 40.3 °F - 32.7 °F 74% 30.48 in 10.0 mi Variable 1.2 mph - N/A   Mostly Cloudy
10:24 AM 41.0 °F - 33.8 °F 76% 30.49 in 10.0 mi Variable 1.2 mph - N/A   Overcast
10:55 AM 42.8 °F 41.1 °F 33.4 °F 70% 30.48 in 10.0 mi SE 3.5 mph - N/A   Overcast
11:34 AM 46.4 °F 45.2 °F 35.6 °F 66% 30.45 in 10.0 mi SSE 3.5 mph - N/A   Overcast
11:49 AM 46.4 °F - 35.6 °F 66% 30.45 in 10.0 mi Variable 1.2 mph - N/A   Overcast
11:55 AM 47.3 °F - 36.3 °F 66% 30.44 in 10.0 mi Variable 2.3 mph - N/A   Overcast
12:04 PM 48.2 °F - 35.6 °F 62% 30.44 in 10.0 mi South 2.3 mph - N/A   Overcast
12:54 PM 51.8 °F - 44.6 °F 76% 30.40 in 10.0 mi SW 6.9 mph - N/A   Overcast
12:55 PM 50.9 °F - 43.7 °F 76% 30.40 in 10.0 mi SW 6.9 mph - N/A   Overcast
1:04 PM 51.8 °F - 44.6 °F 76% 30.39 in 10.0 mi Variable 6.9 mph - N/A   Mostly Cloudy
1:55 PM 51.8 °F - 43.5 °F 73% 30.36 in 10.0 mi South 3.5 mph - N/A   Mostly Cloudy
2:55 PM 54.1 °F - 45.0 °F 71% 30.34 in 10.0 mi SSW 5.8 mph - N/A   Overcast
3:44 PM 53.6 °F - 44.6 °F 72% 30.32 in 10.0 mi South 8.1 mph - N/A   Mostly Cloudy
3:55 PM 54.5 °F - 45.1 °F 71% 30.32 in 10.0 mi SSW 8.1 mph - N/A   Mostly Cloudy
4:09 PM 55.4 °F - 44.6 °F 67% 30.32 in 10.0 mi SSW 8.1 mph - N/A   Mostly Cloudy
4:55 PM 54.7 °F - 45.9 °F 72% 30.31 in 10.0 mi SSW 10.4 mph - N/A   Mostly Cloudy
5:04 PM 55.4 °F - 46.4 °F 72% 30.30 in 10.0 mi South 9.2 mph - N/A   Scattered Clouds
5:55 PM 52.5 °F - 45.1 °F 76% 30.31 in 10.0 mi SSW 5.8 mph - N/A   Mostly Cloudy
6:55 PM 51.4 °F - 44.6 °F 77% 30.32 in 10.0 mi West 2.3 mph - N/A   Mostly Cloudy
7:55 PM 50.2 °F - 45.1 °F 83% 30.32 in 10.0 mi West 2.3 mph - N/A   Overcast
8:14 PM 50.0 °F - 44.6 °F 82% 30.31 in 10.0 mi SW 4.6 mph - N/A   Overcast
8:55 PM 50.9 °F - 44.6 °F 79% 30.31 in 10.0 mi WSW 2.3 mph - N/A   Mostly Cloudy
9:55 PM 46.2 °F 44.1 °F 43.7 °F 91% 30.30 in 10.0 mi SSW 4.6 mph - N/A   Mostly Cloudy
9:59 PM 46.4 °F 44.3 °F 42.8 °F 87% 30.30 in 10.0 mi SSW 4.6 mph - N/A   Scattered Clouds
10:55 PM 47.3 °F - 43.3 °F 86% 30.30 in 10.0 mi WSW 5.8 mph - N/A   Clear
11:55 PM 46.2 °F 44.1 °F 43.0 °F 88% 30.29 in 10.0 mi West 4.6 mph - N/A   Clear